Date String (YYYY-MM-DD hh:mm:ss) UTC,Instrument flags,absolute air pressure of the measurement (hPa),sample flow rate (lpm),inlet stack bypass flow (lpm),air temperature of the measurement (°C),ambient temperature measured by the external sensor (°C),aerosol sample conditioner tube jacket temperature (°C),OPC LED temperature (°C),internal box temperature (°C),relative humidity of the measurement (%),span deviation,mass concentration of particles derived from Lorenz-Mie calculation of OPC scattering (μg/m³),mass concentration of particles derived from Lorenz-Mie calculation of OPC scattering (μg/m³),mass concentration of particles derived from Lorenz-Mie calculation of OPC scattering (μg/m³)
DateTimeUTC,F1_M11,P_M11,Q1_M11,Q2_M11,T1_M11,T2_M11,T3_M11,T4_M11,T5_M11,U1_M11,ZSPAN_M11,X0_M11,X2_M11,X1_M11
2024-02-11 01:00:00,SystemResetWarning,0827.4,5.01,000.00,018.7,018.7,000.0,027.0,020.4,19.0,0000.0,0005.21,0003.87,0003.83
2024-02-11 01:01:00,SystemResetWarning,0827.4,5.00,000.00,018.7,018.5,000.0,027.0,020.3,19.0,0000.0,0005.71,0003.87,0003.82
2024-02-11 01:02:00,SystemResetWarning,0827.3,4.99,000.00,018.6,018.4,000.0,027.0,020.2,19.0,0000.0,0005.71,0003.86,0003.81
2024-02-11 01:03:00,SystemResetWarning,0827.4,5.00,000.00,018.6,018.3,000.0,027.0,020.2,19.0,0000.0,0005.22,0003.87,0003.82
2024-02-11 01:04:00,SystemResetWarning,0827.4,5.01,000.00,018.6,018.2,000.0,027.0,020.1,19.0,0000.0,0004.78,0003.87,0003.82
2024-02-11 01:05:00,SystemResetWarning,0827.4,5.00,000.00,018.5,018.1,000.0,026.9,020.0,19.0,0000.0,0004.82,0003.88,0003.82
2024-02-11 01:06:00,SystemResetWarning,0827.3,5.00,000.00,018.5,018.0,000.0,026.9,020.0,19.1,0000.0,0004.87,0003.88,0003.82
2024-02-11 01:07:00,SystemResetWarning,0827.4,4.99,000.00,018.4,018.0,000.0,027.0,020.0,19.1,0000.0,0004.90,0003.89,0003.83
2024-02-11 01:08:00,SystemResetWarning,0827.4,5.00,000.00,018.4,017.9,000.0,027.0,020.0,19.1,0000.0,0004.90,0003.90,0003.83
2024-02-11 01:09:00,SystemResetWarning,0827.4,5.00,000.00,018.4,017.8,000.0,027.0,020.0,19.1,0000.0,0004.90,0003.89,0003.83
2024-02-11 01:10:00,SystemResetWarning,0827.4,5.00,000.00,018.4,017.8,000.0,027.0,020.0,19.1,0000.0,0004.92,0003.90,0003.83
2024-02-11 01:11:00,SystemResetWarning,0827.4,5.01,000.00,018.4,017.8,000.0,027.0,020.0,19.1,0000.0,0004.98,0003.91,0003.84
2024-02-11 01:12:00,SystemResetWarning,0827.4,5.00,000.00,018.4,017.7,000.0,027.0,020.0,19.2,0000.0,0004.41,0003.90,0003.83
2024-02-11 01:13:00,SystemResetWarning,0827.4,5.00,000.00,018.4,017.7,000.0,027.0,020.0,19.2,0000.0,0004.37,0003.90,0003.83
2024-02-11 01:14:00,SystemResetWarning,0827.4,5.00,000.00,018.3,017.7,000.0,027.0,020.0,19.2,0000.0,0004.41,0003.90,0003.83
2024-02-11 01:15:00,SystemResetWarning,0827.4,5.00,000.00,018.3,017.7,000.0,027.0,020.0,19.2,0000.0,0004.55,0003.93,0003.84
2024-02-11 01:16:00,SystemResetWarning,0827.5,4.99,000.00,018.3,017.6,000.0,027.0,020.0,19.2,0000.0,0004.71,0003.94,0003.85
2024-02-11 01:17:00,SystemResetWarning,0827.6,4.99,000.00,018.3,017.6,000.0,027.0,020.0,19.2,0000.0,0005.55,0003.94,0003.86
2024-02-11 01:18:00,SystemResetWarning,0827.5,5.01,000.00,018.3,017.6,000.0,027.0,020.0,19.2,0000.0,0005.58,0003.95,0003.86
2024-02-11 01:19:00,SystemResetWarning,0827.5,5.01,000.00,018.3,017.6,000.0,027.0,020.0,19.2,0000.0,0005.60,0003.96,0003.87
2024-02-11 01:20:00,SystemResetWarning,0827.5,5.00,000.00,018.3,017.6,000.0,027.0,020.0,19.2,0000.0,0005.74,0003.97,0003.88
2024-02-11 01:21:00,SystemResetWarning,0827.6,4.99,000.00,018.3,017.6,000.0,027.0,020.0,19.2,0000.0,0006.24,0003.98,0003.90
2024-02-11 01:22:00,SystemResetWarning,0827.6,4.99,000.00,018.3,017.6,000.0,027.0,020.0,19.2,0000.0,0006.20,0003.99,0003.92
2024-02-11 01:23:00,SystemResetWarning,0827.6,5.00,000.00,018.3,017.6,000.0,027.0,020.0,19.2,0000.0,0006.27,0004.03,0003.96
2024-02-11 01:24:00,SystemResetWarning,0827.6,5.00,000.00,018.3,017.6,000.0,027.0,020.0,19.2,0000.0,0006.40,0004.09,0004.01
2024-02-11 01:25:00,SystemResetWarning,0827.7,5.01,000.00,018.3,017.8,000.0,027.0,020.2,19.2,0000.0,0006.45,0004.14,0004.06
2024-02-11 01:26:00,SystemResetWarning,0827.7,5.01,000.00,018.5,018.6,000.0,027.1,020.6,19.0,0000.0,0006.42,0004.16,0004.10
2024-02-11 01:27:00,SystemResetWarning,0827.7,4.99,000.00,018.7,018.9,000.0,027.1,020.8,18.8,0000.0,0006.47,0004.19,0004.14
2024-02-11 01:28:00,SystemResetWarning,0827.7,4.99,000.00,018.7,018.8,000.0,027.0,020.6,18.8,0000.0,0005.49,0004.22,0004.17
2024-02-11 01:29:00,SystemResetWarning,0827.7,5.00,000.00,018.6,018.6,000.0,027.0,020.4,18.8,0000.0,0005.62,0004.26,0004.21
2024-02-11 01:30:00,SystemResetWarning,0827.7,5.00,000.00,018.6,018.5,000.0,027.0,020.2,18.9,0000.0,0005.79,0004.31,0004.26
2024-02-11 01:31:00,SystemResetWarning,0827.7,5.01,000.00,018.6,018.3,000.0,026.9,020.1,18.9,0000.0,0006.09,0004.35,0004.29
2024-02-11 01:32:00,SystemResetWarning,0827.7,5.00,000.00,018.5,018.2,000.0,026.9,020.1,18.9,0000.0,0005.76,0004.38,0004.32
2024-02-11 01:33:00,SystemResetWarning,0827.7,4.99,000.00,018.5,018.1,000.0,026.9,020.0,18.9,0000.0,0005.80,0004.41,0004.36
2024-02-11 01:34:00,SystemResetWarning,0827.7,4.99,000.00,018.4,018.0,000.0,026.9,020.0,19.0,0000.0,0005.82,0004.43,0004.37
2024-02-11 01:35:00,SystemResetWarning,0827.7,5.00,000.00,018.4,017.9,000.0,026.9,020.0,19.0,0000.0,0005.78,0004.43,0004.38
2024-02-11 01:36:00,SystemResetWarning,0827.7,5.00,000.00,018.4,017.9,000.0,026.9,020.0,19.0,0000.0,0005.78,0004.43,0004.37
2024-02-11 01:37:00,SystemResetWarning,0827.7,5.01,000.00,018.4,017.8,000.0,026.9,020.0,19.1,0000.0,0005.75,0004.41,0004.36
2024-02-11 01:38:00,SystemResetWarning,0827.7,5.01,000.00,018.4,017.8,000.0,026.9,020.0,19.1,0000.0,0005.74,0004.41,0004.36
2024-02-11 01:39:00,SystemResetWarning,0827.7,5.00,000.00,018.4,017.7,000.0,026.9,020.0,19.1,0000.0,0005.86,0004.43,0004.36
2024-02-11 01:40:00,SystemResetWarning,0827.7,5.00,000.00,018.3,017.7,000.0,027.0,020.0,19.1,0000.0,0005.80,0004.43,0004.37
2024-02-11 01:41:00,SystemResetWarning,0827.7,5.00,000.00,018.3,017.7,000.0,026.9,020.0,19.1,0000.0,0005.66,0004.42,0004.36
2024-02-11 01:42:00,SystemResetWarning,0827.7,5.00,000.00,018.3,017.7,000.0,026.9,020.0,19.1,0000.0,0005.42,0004.41,0004.35
2024-02-11 01:43:00,SystemResetWarning,0827.7,4.99,000.00,018.3,017.7,000.0,026.9,020.0,19.1,0000.0,0005.23,0004.41,0004.35
2024-02-11 01:44:00,SystemResetWarning,0827.8,5.00,000.00,018.3,017.7,000.0,026.9,020.0,19.1,0000.0,0005.23,0004.40,0004.35
2024-02-11 01:45:00,SystemResetWarning,0827.8,5.01,000.00,018.3,017.7,000.0,026.9,020.0,19.1,0000.0,0005.38,0004.40,0004.34
2024-02-11 01:46:00,SystemResetWarning,0827.7,5.01,000.00,018.3,017.7,000.0,027.0,020.0,19.1,0000.0,0006.41,0004.39,0004.32
2024-02-11 01:47:00,SystemResetWarning,0827.7,5.02,000.00,018.3,017.6,000.0,026.9,020.0,19.1,0000.0,0007.31,0004.38,0004.30
2024-02-11 01:48:00,SystemResetWarning,0827.8,5.00,000.00,018.3,017.6,000.0,026.9,020.0,19.1,0000.0,0007.28,0004.37,0004.30
2024-02-11 01:49:00,SystemResetWarning,0827.8,4.99,000.00,018.3,017.6,000.0,026.9,020.0,19.1,0000.0,0007.24,0004.36,0004.29
2024-02-11 01:50:00,SystemResetWarning,0827.8,4.99,000.00,018.3,017.6,000.0,027.0,020.0,19.1,0000.0,0007.08,0004.32,0004.27
2024-02-11 01:51:00,SystemResetWarning,0827.8,5.00,000.00,018.3,017.6,000.0,026.9,020.0,19.1,0000.0,0007.05,0004.30,0004.24
2024-02-11 01:52:00,SystemResetWarning,0827.8,5.00,000.00,018.3,017.6,000.0,026.9,020.0,19.1,0000.0,0007.03,0004.29,0004.22
2024-02-11 01:53:00,SystemResetWarning,0827.8,5.00,000.00,018.3,017.7,000.0,027.0,020.1,19.1,0000.0,0007.06,0004.28,0004.22
2024-02-11 01:54:00,SystemResetWarning,0827.9,5.01,000.00,018.4,018.3,000.0,027.1,020.5,18.9,0000.0,0007.07,0004.27,0004.20
2024-02-11 01:55:00,SystemResetWarning,0827.8,5.00,000.00,018.6,018.9,000.0,027.1,020.8,18.7,0000.0,0007.06,0004.26,0004.19
2024-02-11 01:56:00,SystemResetWarning,0827.8,4.98,000.00,018.7,018.8,000.0,027.0,020.6,18.6,0000.0,0006.90,0004.27,0004.19
2024-02-11 01:57:00,SystemResetWarning,0827.8,5.01,000.00,018.6,018.7,000.0,027.0,020.4,18.6,0000.0,0005.84,0004.27,0004.19
2024-02-11 01:58:00,SystemResetWarning,0827.8,5.01,000.00,018.6,018.5,000.0,026.9,020.3,18.6,0000.0,0004.97,0004.25,0004.18
2024-02-11 01:59:00,SystemResetWarning,0827.9,5.01,000.00,018.6,018.4,000.0,026.9,020.2,18.6,0000.0,0004.99,0004.25,0004.17
